Content
SEND FEEDBACK

Daily
Averages
Monthly
Summary
United Kingdom

LEUCHARS, SCOTLAND


Home > Europe > United Kingdom > Scotland
Elevation: 39 feet     Latitude: 56 23N     Longitude: 002 52W

WEATHER
 
SELECT A DAY
Number of Records: 178,285;   Date Range: 7/1/96 - 8/25/14
 
SHARE

PRINT THIS DATA

[ ← Previous Day ]
WEATHER ALMANAC - MAY 7, 2013
[ Next Day → ]
[ °C ]   °F
Weather ElementAverageHighLow
Temperature50.6 °F59 °F (10:50 am)42 °F (3:50 am)
Dewpoint43.8 °F46.4 °F (7:50 am)40 °F (3:50 pm)
Humidity77.6 %100 % (2:50 am)49 % (3:50 pm)
Barometer30.02 in30.07 in (6:50 am)29.92 in (9:50 pm)
Wind Speed7.4 mph16.1 mph (1:50 pm)
Weather ElementAverage
Visibility9 mi
Wind DirectionSSE (151.9 °)

Weather ElementTotal
Precipitation---
Heating Degree Days14.5 (Base 65)
Growing Degree Days0.5 (Base 50)
Averaged from 31 records on May 7, 2013
WEATHER CONDITIONS BREAKOUT
WIND DIRECTION BREAKOUT
WEATHER BY HOUR - MAY 7, 2013
[ °C ]   °F
Local TimeTemperatureDewpointHumidityBarometerVisibilityWind DirectionWind SpeedGust SpeedPrecipitationEventsConditions
12:50 AM46.4 °F44.6 °F93 %30.04 in6.2 miWest (260°)5.8 mphPartly Cloudy
1:50 AM46.4 °F44.6 °F93 %30.04 in6.2 miCalmPartly Cloudy
2:50 AM42.8 °F42.8 °F100 %30.04 in6.2 miNW (320°)3.5 mphPartly Cloudy
3:50 AM42.0 °F42.0 °F98 %30.05 in9.0 miWest (280°)3.5 mphScattered Clouds
3:50 AM42.8 °F41.0 °F93 %30.04 in6.2 miWest (280°)3.5 mphPartly Cloudy
4:50 AM44.6 °F42.8 °F93 %30.04 in6.2 miSouth (180°)2.3 mphFogShallow Fog
5:50 AM42.8 °F42.8 °F100 %30.04 in6.2 miSouth (180°)1.2 mphFogShallow Fog
6:50 AM46.4 °F44.6 °F93 %30.06 inWest (270°)4.6 mphClear
6:50 AM46.0 °F45.0 °F94 %30.07 in16.0 miWest (270°)4.6 mphClear
7:50 AM50.0 °F46.4 °F87 %30.06 inWNW (290°)1.2 mphClear
8:50 AM53.6 °F46.4 °F77 %30.06 in6.2 miWNW (290°)2.3 mphPartly Cloudy
9:50 AM57.0 °F45.0 °F55 %30.07 in16.0 miWSW (250°)2.3 mphScattered Clouds
9:50 AM57.2 °F44.6 °F63 %30.06 in6.2 miWSW (250°)2.3 mphPartly Cloudy
10:50 AM59.0 °F46.4 °F63 %30.06 in6.2 miEast (100°)4.6 mphPartly Cloudy
11:50 AM59.0 °F44.6 °F59 %30.06 in6.2 miESE (110°)5.8 mphPartly Cloudy
12:50 PM57.2 °F42.8 °F59 %30.04 in6.2 miEast (100°)13.8 mphPartly Cloudy
12:50 PM56.0 °F43.0 °F50 %30.06 in19.0 miEast (100°)13.8 mphScattered Clouds
1:50 PM55.4 °F42.8 °F63 %30.04 in6.2 miEast (100°)16.1 mphPartly Cloudy
2:50 PM55.4 °F41.0 °F58 %30.04 in6.2 miESE (110°)13.8 mphScattered Clouds
3:50 PM54.0 °F40.0 °F49 %30.03 in22.0 miEast (100°)13.8 mphScattered Clouds
3:50 PM53.6 °F41.0 °F62 %30.01 in6.2 miEast (100°)13.8 mphMostly Cloudy
4:50 PM53.6 °F44.6 °F72 %30.01 in6.2 miEast (90°)12.7 mphMostly Cloudy
5:50 PM51.8 °F46.4 °F82 %29.98 inEast (80°)12.7 mphClear
6:50 PM50.0 °F46.4 °F87 %29.95 inENE (70°)10.4 mphClear
6:50 PM51.0 °F46.0 °F77 %29.97 in12.0 miENE (70°)10.4 mphScattered Clouds
7:50 PM51.8 °F44.6 °F76 %29.95 inEast (80°)12.7 mphClear
8:50 PM50.0 °F44.6 °F82 %29.95 inENE (70°)9.2 mphClear
9:50 PM47.0 °F43.0 °F81 %29.94 in12.0 miENE (70°)5.8 mphPartly Cloudy
9:50 PM48.2 °F42.8 °F82 %29.92 inENE (70°)5.8 mphClear
10:50 PM48.2 °F42.8 °F82 %29.92 inEast (80°)6.9 mphClear
11:50 PM48.2 °F42.8 °F82 %29.92 inEast (90°)11.5 mphClear
Hourly data recorded from EGQL, located miles away from Leuchars, Scotland







STORIES FROM OUR PARTNERS